LRFT Weather Reports


time (UTC)temp
C
wind
direction
speed
KPH
gust
KPH
rain 1hr
cm
rain 24hr
cm
rain mn
cm
humidity
%
barometer
mb
20260510150359 20 360 14.5 0.0 0.00 0.00 0.00 64 1014.0
20260510144859 21 340 14.5 0.0 0.00 0.00 0.00 60 1014.0
20260510143359 21 340 14.5 0.0 0.00 0.00 0.00 60 1014.0
20260510141900 21 340 14.5 0.0 0.00 0.00 0.00 60 1014.0
20260510140400 21 340 14.5 0.0 0.00 0.00 0.00 60 1014.0
20260510134900 18 350 22.5 0.0 0.00 0.00 0.00 73 1015.0
20260510133359 18 350 22.5 0.0 0.00 0.00 0.00 73 1015.0
20260510131859 18 350 22.5 0.0 0.00 0.00 0.00 73 1015.0
20260510130408 18 350 22.5 0.0 0.00 0.00 0.00 73 1015.0
20260510124926 17 340 22.5 0.0 0.00 0.00 0.00 78 1015.0
20260510123359 17 340 22.5 0.0 0.00 0.00 0.00 78 1015.0
20260510121856 17 340 22.5 0.0 0.00 0.00 0.00 78 1015.0
20260510120503 17 340 22.5 0.0 0.00 0.00 0.00 78 1015.0
20260510114901 17 340 25.7 0.0 0.00 0.00 0.00 78 1015.0
20260510113359 17 340 25.7 0.0 0.00 0.00 0.00 78 1015.0
20260510111856 17 340 25.7 0.0 0.00 0.00 0.00 78 1015.0
20260510110356 17 340 25.7 0.0 0.00 0.00 0.00 78 1015.0
20260510104900 17 330 22.5 0.0 0.00 0.00 0.00 83 1015.0
20260510103400 17 330 22.5 0.0 0.00 0.00 0.00 83 1015.0
20260510101859 17 330 22.5 0.0 0.00 0.00 0.00 83 1015.0
20260510100407 17 330 22.5 0.0 0.00 0.00 0.00 83 1015.0
20260510094901 17 320 17.7 0.0 0.00 0.00 0.00 83 1015.0
20260510093400 17 320 17.7 0.0 0.00 0.00 0.00 83 1015.0
20260510091906 17 320 17.7 0.0 0.00 0.00 0.00 83 1015.0
20260510090400 17 320 17.7 0.0 0.00 0.00 0.00 83 1015.0
20260510084856 16 340 14.5 0.0 0.00 0.00 0.00 88 1015.0
20260510083359 16 340 14.5 0.0 0.00 0.00 0.00 88 1015.0
20260510081859 16 340 14.5 0.0 0.00 0.00 0.00 88 1015.0
20260510080359 16 340 14.5 0.0 0.00 0.00 0.00 88 1015.0
20260510074859 16 340 11.3 0.0 0.00 0.00 0.00 88 1015.0
20260510073409 16 340 11.3 0.0 0.00 0.00 0.00 88 1015.0
20260510071855 16 340 11.3 0.0 0.00 0.00 0.00 88 1015.0
20260510070401 16 340 11.3 0.0 0.00 0.00 0.00 88 1015.0
20260510064855 15 310 11.3 0.0 0.00 0.00 0.00 94 1015.0
20260510063359 15 310 11.3 0.0 0.00 0.00 0.00 94 1015.0
20260510061856 15 310 11.3 0.0 0.00 0.00 0.00 94 1015.0
20260510060359 15 310 11.3 0.0 0.00 0.00 0.00 94 1015.0
20260510054856 12 3.2 0.0 0.00 0.00 0.00 100 1015.0
20260510053407 12 3.2 0.0 0.00 0.00 0.00 100 1015.0
20260510051859 12 3.2 0.0 0.00 0.00 0.00 100 1015.0
20260510050359 12 3.2 0.0 0.00 0.00 0.00 100 1015.0
20260510044857 12 3.2 0.0 0.00 0.00 0.00 100 1014.0
20260510043359 12 3.2 0.0 0.00 0.00 0.00 100 1014.0
20260510041859 12 3.2 0.0 0.00 0.00 0.00 100 1014.0
20260510040359 12 3.2 0.0 0.00 0.00 0.00 100 1014.0
20260510034853 12 3.2 0.0 0.00 0.00 0.00 100 1014.0
20260510033405 12 3.2 0.0 0.00 0.00 0.00 100 1014.0
20260510031857 12 3.2 0.0 0.00 0.00 0.00 100 1014.0
20260510030400 12 3.2 0.0 0.00 0.00 0.00 100 1014.0
20260510024854 12 100 4.8 0.0 0.00 0.00 0.00 100 1014.0
20260510023401 12 100 4.8 0.0 0.00 0.00 0.00 100 1014.0
20260510021853 12 100 4.8 0.0 0.00 0.00 0.00 100 1014.0
20260510020359 12 100 4.8 0.0 0.00 0.00 0.00 100 1014.0
20260510014857 12 100 4.8 0.0 0.00 0.00 0.00 100 1014.0
20260510013359 -17 0.0 0.0 0.00 0.00 0.00
20260510011856 -17 0.0 0.0 0.00 0.00 0.00
20260510010400 -17 0.0 0.0 0.00 0.00 0.00
20260510004856 12 100 4.8 0.0 0.00 0.00 0.00 100 1014.0
20260510003400 12 100 4.8 0.0 0.00 0.00 0.00 100 1014.0
20260510001857 12 100 4.8 0.0 0.00 0.00 0.00 100 1014.0
20260510000359 12 100 4.8 0.0 0.00 0.00 0.00 100 1014.0
20260509234857 -17 0.0 0.0 0.00 0.00 0.00
20260509233414 -17 0.0 0.0 0.00 0.00 0.00
20260509231856 -17 0.0 0.0 0.00 0.00 0.00
20260509230359 -17 0.0 0.0 0.00 0.00 0.00
20260509224854 13 120 11.3 0.0 0.00 0.00 0.00 94 1015.0
20260509223359 13 120 11.3 0.0 0.00 0.00 0.00 94 1015.0
20260509221850 13 120 11.3 0.0 0.00 0.00 0.00 94 1015.0
20260509220356 -17 0.0 0.0 0.00 0.00 0.00
20260509214854 13 120 11.3 0.0 0.00 0.00 0.00 94 1015.0
20260509213359 13 120 11.3 0.0 0.00 0.00 0.00 94 1015.0
20260509211854 -17 0.0 0.0 0.00 0.00 0.00
20260509210359 -17 0.0 0.0 0.00 0.00 0.00
20260509204906 13 120 11.3 0.0 0.00 0.00 0.00 94 1015.0
20260509203400 13 120 11.3 0.0 0.00 0.00 0.00 94 1015.0
20260509201857 13 120 11.3 0.0 0.00 0.00 0.00 94 1015.0
20260509200359 -17 0.0 0.0 0.00 0.00 0.00
20260509194857 13 110 11.3 0.0 0.00 0.00 0.00 94 1015.0
20260509193359 13 110 11.3 0.0 0.00 0.00 0.00 94 1015.0
20260509191856 13 110 11.3 0.0 0.00 0.00 0.00 94 1015.0
20260509190359 13 110 11.3 0.0 0.00 0.00 0.00 94 1015.0
20260509184900 15 110 14.5 0.0 0.00 0.00 0.00 88 1014.0
20260509183400 15 110 14.5 0.0 0.00 0.00 0.00 88 1014.0
20260509181900 15 110 14.5 0.0 0.00 0.00 0.00 88 1014.0
20260509180400 15 110 14.5 0.0 0.00 0.00 0.00 88 1014.0
20260509174900 16 110 17.7 0.0 0.00 0.00 0.00 83 1014.0
20260509173401 16 110 17.7 0.0 0.00 0.00 0.00 83 1014.0
20260509171857 16 110 17.7 0.0 0.00 0.00 0.00 83 1014.0
20260509170400 16 110 17.7 0.0 0.00 0.00 0.00 83 1014.0
20260509164853 17 110 22.5 0.0 0.00 0.00 0.00 73 1014.0
20260509163400 17 110 22.5 0.0 0.00 0.00 0.00 73 1014.0
20260509161856 17 110 22.5 0.0 0.00 0.00 0.00 73 1014.0
20260509160359 17 110 22.5 0.0 0.00 0.00 0.00 73 1014.0
20260509154900 17 110 22.5 0.0 0.00 0.00 0.00 73 1014.0
20260509153359 17 110 22.5 0.0 0.00 0.00 0.00 73 1014.0
20260509151900 17 110 22.5 0.0 0.00 0.00 0.00 73 1014.0